Location: Bercimuel
(41.3983°N, 3.5711°W)
Time: 11:49:56
(UTC+00:00)

Cosmos 1072 Rocket - Pass Details

Date: 15 May 2026
Orbit: 949 x 1007 km, 82.9° (Epoch: 8 June)

Event Time Altitude Azimuth Distance (km) Brightness Sun altitude
Exits shadow 21:36:50 30° 171° (S) 1,684 5.3 -19.9°
Maximum altitude 21:40:06 71° 94° (E) 1,037 4.4 -20.2°
Drops below altitude 10° 21:46:25 10° 12° (NNE) 2,767 7.4 -20.9°
Sets 21:48:58 0° 10° (N) 3,727 8.2 -21.2°
